Regional Weather Roundup
Issued by NWS

Home | Current Version | Previous Version | Text Only | Print | Product List | Glossary Off
Versions: 1 2 3 4 5 6 7 8 9 10 11 12 13 14 15 16 17 18 19 20 21 22 23 24 25 26 27 28 29 30 31 32 33 34 35 36 37 38 39 40 41 42 43 44 45 46 47 48 49 50

000
ASUS44 KMEG 050000
RWRTN
TENNESSEE HOURLY STATE WEATHER ROUNDUP
NATIONAL WEATHER SERVICE MEMPHIS TN
700 PM CDT MON MAY 04 2015

TNZ002-004-019-021-049-052-054-088>092-050100-
WEST TENNESSEE

CITY           SKY/WX    TMP DP  RH WIND       PRES   REMARKS
MEMPHIS INTL   PTCLDY    80  51  36 S10       30.14F
NWS MEMPHIS      N/A     83 N/A N/A MISG        N/A
JACKSON        CLEAR     79  50  36 CALM      30.16F
DYERSBURG      CLEAR     81  45  28 S6        30.15F
PARIS          CLEAR     75  54  46 S7        30.17S
LEXINGTON      CLEAR     77  52  41 S3        30.17S
$$

TNZ008-025-027-028-033-062-065-066-050100-
NORTH MIDDLE TENNESSEE

CITY           SKY/WX    TMP DP  RH WIND       PRES   REMARKS
NASHVILLE      PTCLDY    77  54  44 S6        30.19S
CLARKSVILLE    CLEAR     77  54  44 S8        30.17S
CROSSVILLE     CLEAR     74  46  36 SW3       30.26S
$$

TNZ061-075-076-078-094-096-097-050100-
SOUTH MIDDLE TENNESSEE

CITY           SKY/WX    TMP DP  RH WIND       PRES   REMARKS
FAYETTEVILLE     N/A     75  54  46 CALM      30.22S
TULLAHOMA      CLEAR     75  48  38 CALM      30.23S
WINCHESTER     CLEAR     79  52  38 CALM      30.23R
SHELBYVILLE    CLEAR     75  55  50 S5        30.22S
$$

TNZ017-018-042-046-047-050100-
NORTHEAST TENNESSEE

CITY           SKY/WX    TMP DP  RH WIND       PRES   REMARKS
TRI CITIES     PTCLDY    74  49  41 W6        30.24S
ELIZABETHTON   CLEAR     66  54  63 CALM      30.25S
$$

TNZ012-013-036-069-073-074-050100-
CENTRAL EAST TENNESSEE

CITY           SKY/WX    TMP DP  RH WIND       PRES   REMARKS
KNOXVILLE      PTCLDY    76  48  37 W6        30.22R
OAK RIDGE      CLEAR     79  48  33 VRB3      30.23R
GATLINBURG     CLEAR     77  48  36 W3        30.22S
$$

TNZ083-085-099-050100-
SOUTHEAST TENNESSEE

CITY           SKY/WX    TMP DP  RH WIND       PRES   REMARKS
CHATTANOOGA    PTCLDY    78  50  37 SW5       30.22S
$$

SKY/WX REPORTED AS FAIR MEANS FEW OR NO CLOUDS BELOW
12 THOUSAND FEET.



USA.gov is the U.S. government's official web portal to all federal, state and local government web resources and services.